Weather observations for the past three days for
Watauga County Hospital Heliport
Imperial (Metric)
Date Time (edt) Wind (mph) Vis. (mi.) Weather Sky Cond. Temperature (ºF) Relative Humidity Wind Chill (°F) Heat Index (°F) Pressure Precipitation (in)
Air Dwpt 6 hour altimeter (in) sea level (mb) 1 hr 3 hr 6 hr
Max. Min.
18 05:35 Calm 5.00 Fog/Mist SCT024 66.4 66.4 100% 30.12 0.0
18 05:15 Calm 7.00 Partly Cloudy SCT013 SCT024 66.7 66.7 100% 30.12 0.0
18 04:55 SE 3 7.00 Partly Cloudy SCT013 SCT021 67.1 67.1 100% 30.11 0.0
18 04:35 Calm 10.00 Mostly Cloudy BKN013 BKN023 BKN032 68 68 100% 30.11 0.0
18 04:15 SE 3 10.00 Mostly Cloudy BKN014 BKN022 68.4 68.4 100% 30.12 0.0
18 03:55 Calm 10.00 Mostly Cloudy SCT014 BKN023 68.2 68.2 100% 30.11 0.0
18 03:35 Calm 10.00 Partly Cloudy SCT012 SCT019 69.8 68.7 96% 30.12 0.0
18 03:15 W 3 10.00 Partly Cloudy SCT010 SCT016 SCT021 69.8 68.7 96% 30.12 0.0
18 02:55 Calm 7.00 Mostly Cloudy BKN012 BKN021 BKN030 68.9 68.9 100% 30.13 0.0
18 02:15 S 3 10.00 Fair CLR 69.1 69.1 100% 30.14 0.0
18 01:55 S 5 7.00 Partly Cloudy SCT011 SCT017 SCT022 68.7 68.7 72.1 67.1 100% 30.15 0.0
18 01:35 S 5 10.00 Partly Cloudy SCT013 SCT020 SCT027 70 70 100% 30.15 0.0
18 01:15 SE 6 10.00 Mostly Cloudy SCT012 SCT017 BKN030 69.4 69.4 100% 30.15 0.0
18 00:55 SE 5 4.00 Fog/Mist SCT012 SCT021 BKN046 67.8 67.8 100% 30.15 0.0
18 00:35 Calm 5.00 Fog/Mist SCT012 BKN017 BKN021 68 68 100% 30.15 0.0
18 00:15 Calm 7.00 Mostly Cloudy SCT012 BKN016 BKN021 68 68 100% 30.15 0.0
17 23:55 Calm 7.00 Mostly Cloudy BKN014 BKN020 68.2 68.2 100% 30.15 0.0
17 23:35 Calm 7.00 Mostly Cloudy BKN014 BKN020 BKN036 67.6 67.6 100% 30.15 0.0
17 23:15 Calm 7.00 Mostly Cloudy BKN014 BKN020 67.8 67.8 100% 30.15 0.0
17 22:55 Calm 5.00 Fog/Mist SCT014 BKN018 BKN034 67.3 67.3 100% 30.14 0.0
17 22:35 Calm 5.00 Fog/Mist SCT042 SCT048 67.1 67.1 100% 30.14 0.0
17 22:15 Calm 5.00 Fog/Mist CLR 67.6 67.6 100% 30.13 0.0
17 21:35 Calm 7.00 Fair CLR 68.5 68.5 100% 30.12 0.0
17 21:15 Calm 10.00 Partly Cloudy SCT018 SCT027 SCT032 68.9 68.9 100% 30.12 0.0
17 20:55 Calm 10.00 Partly Cloudy SCT016 SCT024 SCT030 70.2 68.7 95% 30.12 0.0
17 20:35 Calm 10.00 Fair CLR 70.7 66.2 86% 30.11 0.0
17 20:15 Calm 10.00 Fair CLR 71.1 66.2 85% 30.1 0.0
17 19:55 Calm 10.00 Fair CLR 71.6 65.5 79 71.4 81% 30.09 0.0
17 19:35 SE 3 10.00 Fair CLR 71.6 64.8 79% 30.09 0.0
17 19:15 SE 5 10.00 Light Rain SCT019 SCT030 SCT047 74.5 64.2 70% 30.09 0.0
17 18:55 SE 3 10.00 Partly Cloudy SCT030 SCT039 77.2 66.2 69% 79 30.09 0.0
17 18:35 S 6 10.00 Partly Cloudy SCT020 SCT027 SCT037 77 65.8 69% 79 30.09 0.0
17 18:15 S 6 10.00 Partly Cloudy SCT021 76.5 65.3 69% 78 30.08 0.0
17 17:55 SE 5 10.00 Fair CLR 77.2 67.1 71% 79 30.09 0.0
17 17:35 SE 5 10.00 Partly Cloudy SCT025 78.4 66.4 67% 80 30.09 0.0
17 17:15 Calm 10.00 Fair CLR 76.8 66.7 71% 79 30.11 0.0
17 16:55 S 3 10.00 Fair CLR 77 65.1 67% 79 30.1 0.0
17 16:35 Calm 10.00 Fair CLR 76.8 65.7 69% 79 30.11 0.0
17 16:15 S 5 10.00 Fair CLR 76.1 66.6 72% 78 30.12 0.0
17 15:55 S 9 10.00 Fair CLR 76.5 65.7 69% 78 30.13 0.0
17 15:35 SE 6 10.00 Fair CLR 76.3 66.2 71% 78 30.13 0.0
17 15:15 S 5 10.00 Partly Cloudy SCT070 SCT100 75.9 66.6 73% 77 30.13 0.0
17 14:55 S 5 10.00 Mostly Cloudy SCT037 SCT049 BKN070 75.6 66.6 74% 77 30.13 0.0
17 14:35 S 10 10.00 Mostly Cloudy SCT020 BKN028 BKN037 76.3 66.6 72% 78 30.13 0.0
17 14:15 S 7 10.00 Mostly Cloudy BKN020 BKN035 BKN050 77 66.4 70% 79 30.12 0.0
17 13:55 Calm 10.00 Overcast BKN020 OVC035 75.6 68.4 80.8 68.4 78% 77 30.13 0.0
17 13:35 Calm 10.00 Overcast OVC022 75.9 66.7 73% 77 30.14 0.0
17 13:15 W 7 10.00 Overcast BKN020 BKN029 OVC048 77.4 63.9 63% 79 30.14 0.0
17 12:55 SW 6 10.00 Mostly Cloudy SCT020 BKN035 BKN050 80.1 66.6 64% 82 30.15 0.0
17 12:35 S 3 10.00 Mostly Cloudy SCT016 SCT050 BKN080 79.2 67.8 68% 82 30.15 0.0
17 12:15 S 6 10.00 Mostly Cloudy SCT018 SCT060 BKN080 80.2 68.9 68% 83 30.15 0.0
17 11:55 E 6 10.00 Partly Cloudy SCT060 SCT075 SCT090 80.1 69.3 70% 83 30.14 0.0
17 11:35 SE 5 10.00 Fair CLR 79 67.8 69% 81 30.14 0.0
17 11:15 S 3 10.00 Partly Cloudy SCT085 77.5 68.4 73% 79 30.14 0.0
17 10:55 SE 5 10.00 Partly Cloudy SCT085 74.1 67.6 80% 30.15 0.0
17 10:35 SE 5 10.00 Partly Cloudy SCT080 75.4 67.5 77% 76 30.15 0.0
17 10:15 E 3 10.00 Partly Cloudy SCT080 73.2 66.9 81% 30.15 0.0
17 09:55 Calm 10.00 Partly Cloudy SCT070 SCT075 73.6 66 77% 30.16 0.0
17 09:35 Calm 10.00 Partly Cloudy SCT060 71.8 64.4 78% 30.16 0.0
17 09:15 Calm 10.00 Partly Cloudy SCT012 SCT060 71.6 65.1 80% 30.16 0.0
17 08:55 S 3 10.00 Mostly Cloudy BKN012 70.7 65.1 83% 30.16 0.0
17 08:35 S 5 10.00 Overcast OVC012 70.7 64.4 81% 30.15 0.0
17 08:15 Calm 10.00 Mostly Cloudy BKN010 69.8 68.2 95% 30.15 0.0
17 07:55 Calm 7.00 Mostly Cloudy BKN010 BKN014 68.4 68 68.7 67.1 99% 30.14 0.0
17 07:35 Calm 7.00 Mostly Cloudy BKN014 67.5 67.5 100% 30.14 0.0
17 07:15 Calm 7.00 Overcast OVC014 67.5 67.5 100% 30.14 0.0
17 06:55 Calm 7.00 Overcast OVC014 67.1 67.1 100% 30.13 0.0
17 06:35 Calm 7.00 Mostly Cloudy BKN014 67.1 67.1 100% 30.12 0.0
17 06:15 Calm 7.00 Overcast OVC014 67.5 67.5 100% 30.12 0.0
17 05:55 Calm 7.00 Overcast BKN012 OVC016 67.3 67.3 100% 30.11 0.0
17 05:35 Calm 7.00 Overcast OVC010 67.5 67.5 100% 30.11 0.0
17 05:15 Calm 7.00 Overcast SCT007 OVC012 68 67.8 99% 30.1 0.0
17 04:55 Calm 7.00 Mostly Cloudy BKN010 BKN013 67.5 67.5 100% 30.1 0.0
17 04:35 Calm 7.00 Overcast BKN009 OVC015 67.6 67.6 100% 30.1 0.0
17 04:15 SW 5 7.00 Overcast OVC006 68.2 68 99% 30.1 0.0
17 03:35 Calm 7.00 Overcast BKN006 OVC013 68.2 68.2 100% 30.11 0.0
17 03:15 Calm 7.00 Overcast SCT006 BKN010 OVC017 68.2 68.2 100% 30.11 0.0
17 02:55 SW 3 7.00 Overcast BKN006 BKN014 OVC023 68.4 68.4 100% 30.1 0.0
17 02:35 Calm 7.00 Overcast OVC008 68.2 68.2 100% 30.1 0.0
17 02:15 Calm 5.00 Fog/Mist BKN010 OVC013 68 68 100% 30.1 0.0
17 01:55 SE 3 5.00 Fog/Mist BKN008 BKN013 BKN025 67.8 67.8 68 67.1 100% 30.1 0.0
17 01:35 Calm 7.00 Overcast OVC008 67.6 67.6 100% 30.11 0.0
17 01:15 Calm 7.00 Overcast BKN008 OVC014 67.6 67.6 100% 30.11 0.0
17 00:55 Calm 7.00 Mostly Cloudy BKN008 BKN014 BKN020 67.5 67.5 100% 30.11 0.0
17 00:35 Calm 7.00 Overcast OVC008 67.5 67.5 100% 30.12 0.0
17 00:15 Calm 5.00 Fog/Mist OVC008 67.1 67.1 100% 30.12 0.0
16 23:55 Calm 7.00 Overcast OVC008 67.3 67.3 100% 30.13 0.0
16 23:35 Calm 7.00 Overcast BKN008 OVC012 67.1 67.1 100% 30.12 0.0
16 23:15 Calm 7.00 Overcast OVC008 67.1 67.1 100% 30.12 0.0
16 22:55 Calm 7.00 Overcast OVC008 67.6 67.6 100% 30.12 0.0
16 22:35 Calm 7.00 Overcast OVC008 67.6 67.6 100% 30.12 0.0
16 22:15 Calm 7.00 Overcast OVC008 67.8 67.5 99% 30.11 0.0
16 21:35 SE 3 7.00 Overcast OVC008 67.5 67.5 100% 30.1 0.0
16 21:15 E 3 7.00 Overcast OVC008 67.3 67.3 100% 30.11 0.0
16 20:55 SE 3 7.00 Overcast OVC010 67.5 67.3 99% 30.1 0.0
16 20:35 SE 3 7.00 Overcast SCT008 OVC012 67.3 67.3 100% 30.1 0.0
16 20:15 SE 3 7.00 Overcast BKN011 OVC016 67.5 67.3 99% 30.1 0.0
16 19:55 Calm 7.00 Mostly Cloudy BKN011 BKN080 68 67.1 78.1 68 97% 30.08 0.0
16 19:35 E 5 10.00 Mostly Cloudy SCT011 BKN080 68.9 66.2 91% 30.07 0.0
16 19:15 Calm 7.00 Overcast BKN011 BKN015 OVC080 68.9 66.6 92% 30.08 0.0
16 18:55 Calm 7.00 Overcast BKN011 OVC016 68.9 66.7 93% 30.09 0.0
16 18:35 Calm 7.00 Overcast SCT010 OVC013 68.9 66.6 92% 30.09 0.0
16 18:15 SE 6 7.00 Overcast OVC008 68.2 66.6 95% 30.09 0.0
16 17:55 Calm 7.00 Overcast OVC010 68.2 66.9 96% 30.09 0.0
16 17:35 SE 9 10.00 Overcast OVC010 68.9 64.8 87% 30.09 0.0
16 17:15 SE 5 7.00 Overcast BKN010 OVC015 68.7 64.6 87% 30.09 0.0
16 16:55 E 6 10.00 Overcast OVC015 70.9 64.6 81% 30.08 0.0
16 16:35 S 6 10.00 Overcast OVC015 72 64.6 78% 30.08 0.0
16 16:15 E 7 10.00 Mostly Cloudy BKN015 74.1 65.5 75% 30.08 0.0
16 15:55 SE 6 10.00 Mostly Cloudy BKN013 75.7 64.8 69% 77 30.09 0.0
16 15:35 SE 7 10.00 Overcast OVC013 75.4 64.8 70% 77 30.09 0.0
16 15:15 SE 3 10.00 Mostly Cloudy BKN015 75.6 64.4 68% 77 30.09 0.0
16 14:55 S 7 10.00 Partly Cloudy SCT017 76.5 64.6 67% 78 30.09 0.0
16 14:35 SE 8 10.00 Partly Cloudy SCT017 78.1 65.3 65% 80 30.09 0.0
16 14:15 SE 3 10.00 Partly Cloudy SCT095 74.5 65.1 73% 30.1 0.0
16 13:55 SE 6 10.00 Partly Cloudy SCT095 75.4 65.5 77 63.9 71% 77 30.1 0.0
16 13:35 SE 3 10.00 Fair CLR 76.5 65.5 69% 78 30.1 0.0
16 13:15 E 5 10.00 Partly Cloudy SCT090 74.8 64.9 71% 30.11 0.0
16 12:55 E 6 10.00 Fair CLR 76.3 64.9 68% 78 30.11 0.0
16 12:35 SE 3 10.00 Fair CLR 75.4 64.4 69% 77 30.11 0.0
16 12:15 E 5 10.00 Fair CLR 73.6 63.5 71% 30.11 0.0
16 11:55 NE 5 10.00 Fair CLR 72 62.8 73% 30.11 0.0
16 11:35 Calm 10.00 Partly Cloudy SCT013 SCT075 70.7 62.1 74% 30.12 0.0
16 11:15 Calm 10.00 Overcast SCT009 OVC075 66.7 60.6 81% 30.12 0.0
16 10:55 SE 5 10.00 Overcast OVC009 64.9 59.7 83% 30.12 0.0
16 10:35 SE 3 10.00 Mostly Cloudy SCT011 BKN048 BKN060 64.6 59.2 83% 30.12 0.0
16 10:15 Calm 10.00 Partly Cloudy SCT048 SCT060 64.6 58.5 81% 30.12 0.0
16 09:55 SE 3 10.00 Mostly Cloudy BKN048 BKN060 64 57.2 79% 30.12 0.0
16 09:35 SE 5 10.00 Mostly Cloudy BKN048 64 57 78% 30.12 0.0
16 09:15 Calm 10.00 Mostly Cloudy BKN050 BKN070 64.4 57.4 78% 30.12 0.0
16 08:55 Calm 10.00 Mostly Cloudy BKN050 64 57.4 79% 30.11 0.0
16 08:35 E 3 10.00 Partly Cloudy SCT055 SCT070 64.4 57.2 78% 30.1 0.0
16 08:15 SE 3 10.00 Partly Cloudy SCT055 64.4 57.6 79% 30.1 0.0
16 07:55 Calm 10.00 Partly Cloudy SCT055 63.9 59.2 64.9 60.4 85% 30.09 0.0
16 07:35 Calm 10.00 Partly Cloudy SCT028 SCT060 62.6 61.5 96% 30.09 0.0
16 07:15 Calm 10.00 Mostly Cloudy BKN028 BKN070 61.7 61.5 99% 30.08 0.0
16 06:55 Calm 10.00 Partly Cloudy SCT030 60.4 60.4 100% 30.07 0.0
16 06:35 Calm 10.00 Fair CLR 61.5 57.9 88% 30.06 0.0
16 06:15 Calm 10.00 Fair CLR 61 59.9 96% 30.06 0.0
16 05:55 Calm 10.00 Fair CLR 62.1 57.9 86% 30.06 0.0
16 05:35 Calm 10.00 Partly Cloudy SCT037 SCT046 63.7 57.2 80% 30.06 0.0
16 05:15 Calm 10.00 Mostly Cloudy BKN035 63.3 57.7 82% 30.06 0.0
16 04:55 SE 6 10.00 Partly Cloudy SCT037 SCT043 62.1 61.7 99% 30.05 0.0
16 04:35 Calm 10.00 Mostly Cloudy BKN037 63.5 59.2 86% 30.05 0.0
16 04:15 SE 3 10.00 Partly Cloudy SCT042 SCT047 63 60.6 92% 30.05 0.0
16 03:55 SE 5 10.00 Partly Cloudy SCT042 SCT065 63.5 60.4 90% 30.05 0.0
16 03:35 SE 3 10.00 Mostly Cloudy SCT042 BKN065 63.7 63.5 99% 30.05 0.0
16 03:15 Calm 10.00 Mostly Cloudy SCT038 SCT046 BKN055 63.5 63.5 100% 30.05 0.0
16 02:55 Calm 10.00 Partly Cloudy SCT055 63.9 63.7 99% 30.04 0.0
16 02:35 E 5 10.00 Mostly Cloudy BKN039 BKN049 63.7 63.7 100% 30.04 0.0
16 02:15 Calm 10.00 Overcast OVC039 63.9 63.9 100% 30.05 0.0
16 01:55 Calm 10.00 Overcast OVC037 63.7 63.7 73.8 63.1 100% 30.05 0.0
16 01:35 Calm 10.00 Partly Cloudy SCT037 SCT045 SCT060 63.1 63.1 100% 30.05 0.0
16 01:15 Calm 10.00 Partly Cloudy SCT045 SCT060 63.5 63.5 100% 30.05 0.0
16 00:55 Calm 10.00 Partly Cloudy SCT045 63.7 63.7 100% 30.05 0.0
16 00:35 Calm 10.00 Partly Cloudy SCT038 SCT047 SCT055 64.6 63.7 97% 30.05 0.0
16 00:15 Calm 10.00 Mostly Cloudy SCT038 BKN065 66.2 62.4 88% 30.05 0.0
15 23:55 Calm 10.00 Mostly Cloudy BKN038 BKN050 BKN065 64.4 64 99% 30.05 0.0
15 23:35 Calm 10.00 Mostly Cloudy BKN040 BKN050 64.6 64.4 99% 30.05 0.0
15 23:15 Calm 10.00 Partly Cloudy SCT040 SCT050 64.2 63.7 98% 30.04 0.0
15 22:55 Calm 10.00 Partly Cloudy SCT042 64.8 64.6 99% 30.04 0.0
15 22:35 Calm 10.00 Partly Cloudy SCT042 SCT049 SCT060 66.7 63.9 91% 30.03 0.0
15 22:15 Calm 10.00 Mostly Cloudy BKN042 BKN049 66.7 62.6 87% 30.03 0.0
15 21:55 Calm 10.00 Mostly Cloudy BKN040 BKN047 68 62.2 82% 30.03 0.0
15 21:35 Calm 10.00 Partly Cloudy SCT038 SCT046 SCT050 68 62.6 83% 30.02 0.0
15 21:15 Calm 10.00 Mostly Cloudy SCT040 SCT046 BKN060 70.3 61.9 75% 30.01 0.0
15 20:55 Calm 10.00 Mostly Cloudy SCT038 BKN047 BKN070 70 62.2 77% 30 0.0
15 20:35 Calm 10.00 Mostly Cloudy BKN036 70.9 62.6 75% 30 0.0
15 20:15 Calm 10.00 Partly Cloudy SCT036 SCT060 71.4 61.9 72% 29.99 0.0
15 19:55 SE 3 10.00 Partly Cloudy SCT050 SCT060 SCT075 74.1 60.8 82.2 74.1 63% 29.99 0.0
15 19:35 SE 5 10.00 Partly Cloudy SCT050 SCT060 74.8 60.4 61% 29.98 0.0
15 19:15 SE 5 10.00 Fair CLR 76.5 60.8 59% 78 29.98 0.0
15 18:55 Calm 10.00 Partly Cloudy SCT050 77.7 61.5 58% 79 29.98 0.0
15 18:35 E 5 10.00 Partly Cloudy SCT050 77.9 61.9 58% 79 29.98 0.0
15 18:15 S 3 10.00 Fair CLR 79.3 61.7 55% 81 29.98 0.0
15 17:55 SE 5 10.00 Fair CLR 78.4 62.8 59% 80 29.98 0.0
15 17:35 SE 3 10.00 Fair CLR 79 61.7 56% 80 29.98 0.0
15 17:15 SE 6 10.00 Partly Cloudy SCT065 SCT085 78.8 62.1 57% 80 29.98 0.0
15 16:55 SE 5 10.00 Partly Cloudy SCT065 SCT085 77.5 63 61% 79 29.99 0.0
15 16:35 SE 7 10.00 Partly Cloudy SCT050 76.1 62.2 62% 78 29.99 0.0
15 16:15 SE 7 10.00 Mostly Cloudy BKN037 75.2 62.2 64% 77 29.98 0.0
15 15:55 NE 7 10.00 Mostly Cloudy BKN039 BKN045 BKN055 75.7 62.4 63% 78 29.98 0.0
15 15:35 SE 7 10.00 Partly Cloudy SCT040 SCT050 SCT070 78.3 62.1 58% 80 29.98 0.0
15 15:15 S 3 10.00 Partly Cloudy SCT040 SCT060 SCT070 80.4 62.2 54% 82 29.98 0.0
15 14:55 SW 5 10.00 Partly Cloudy SCT060 SCT070 81.5 61.3 50% 82 29.98 0.0
15 14:35 SE 6 10.00 Fair CLR 81.9 63.5 54% 83 29.98 0.0
15 14:15 SE 3 10.00 Fair CLR 80.6 63.5 56% 82 29.99 0.0
15 13:55 E 7 10.00 Partly Cloudy SCT048 SCT055 79.3 62.8 81.3 63.5 57% 81 29.98 0.0
15 13:35 SE 6 10.00 Partly Cloudy SCT047 SCT055 SCT070 79.9 64 59% 82 29.99 0.0
15 13:15 E 7 10.00 Partly Cloudy SCT041 SCT049 SCT070 75.4 63 65% 77 30 0.0
15 12:55 Calm 10.00 Partly Cloudy SCT041 SCT049 SCT060 77.2 61.2 58% 79 30 0.0
15 12:35 Calm 10.00 Fair CLR 81 61.9 52% 82 30 0.0
15 12:15 SE 3 10.00 Partly Cloudy SCT038 SCT044 SCT060 75.9 62.2 63% 78 30 0.0
15 11:55 Calm 10.00 Mostly Cloudy BKN036 BKN044 BKN050 76.1 61 60% 78 30 0.0
15 11:35 SE 3 10.00 Partly Cloudy SCT038 77.9 61.2 56% 79 30 0.0
15 11:15 NE 5 10.00 Partly Cloudy SCT040 SCT060 75.2 60.3 60% 77 30 0.0
15 10:55 Calm 10.00 Partly Cloudy SCT029 SCT033 SCT060 73 59.4 62% 30 0.0
15 10:35 Calm 10.00 Mostly Cloudy BKN029 BKN041 BKN050 72.3 58.8 63% 30 0.0
15 10:15 Calm 10.00 Partly Cloudy SCT027 SCT036 SCT044 73.8 61.3 65% 30 0.0
15 09:55 Calm 10.00 Partly Cloudy SCT033 72.5 59.5 64% 30 0.0
15 09:35 NE 3 10.00 Fair CLR 71.1 59.4 67% 29.99 0.0
15 09:15 Calm 10.00 Fair CLR 70.2 59.9 70% 29.99 0.0
15 08:55 Calm 10.00 Fair CLR 69.3 62.1 78% 29.99 0.0
15 08:35 Calm 10.00 Fair CLR 67.3 61.7 82% 29.99 0.0
15 08:15 Calm 10.00 Fair CLR 65.5 62.4 90% 29.99 0.0
15 07:55 Calm 10.00 Fair CLR 63.5 63.3 66.4 58.6 99% 29.98 0.0
15 07:35 Calm 10.00 Fair CLR 61.5 61.5 100% 29.98 0.0
15 07:15 Calm 7.00 Fair CLR 60.1 60.1 100% 29.98 0.0
15 06:55 Calm 7.00 Fair CLR 59.9 59.9 100% 29.97 0.0
15 06:35 Calm 2.00 Fog/Mist CLR 58.8 58.8 100% 29.95 0.0
15 06:15 Calm 5.00 Fog/Mist CLR 59.9 59.9 100% 29.94 0.0
15 05:55 Calm 5.00 Fog/Mist CLR 59.9 59.9 100% 29.93 0.0
Date Time (edt) Wind (mph) Vis. (mi.) Weather Sky Cond. Air Dwpt Max. Min. Relative Humidity Wind Chill (°F) Heat Index (°F) altimeter (in) sea level (mb) 1 hr 3 hr 6 hr
6 hour
Temperature (ºF) Pressure Precipitation (in)